Location: Nairn
(57.5833°N, 3.8667°W)
Time: 17:13:10
(UTC+00:00)

S-56A Canister/Altair - Pass Details

Date: 01 December 2020
Orbit: 633 x 2499 km, 38.9° (Epoch: 19 January)

Event Time Altitude Azimuth Distance (km) Brightness Sun altitude
Rises 20:13:08 0° 234° (SW) 5,541 12.4 -35.4°
Reaches altitude 10° 20:18:08 10° 222° (SW) 4,215 11.5 -36.1°
Enters shadow 20:24:02 21° 191° (S) 2,988 10.4 -36.8°
Maximum altitude 20:25:34 22° 178° (S) 2,823 - -37.0°
Drops below altitude 10° 20:31:19 10° 132° (SE) 3,150 - -37.8°
Sets 20:34:23 0° 117° (ESE) 3,844 - -38.1°
